User: anonymous   Login
Location: Unspecified
(46.0725°N, 13.7344°E)
Time: 02:47:48
(UTC+01:00)
Language:

Resurs 1-4 Rocket - Orbit

View from above orbital plane
View from above orbital plane
View from above satellite
View from above satellite

Ground track
Ground track

The orbit data is extracted from the following two-line orbital elements,

1 25400U 98043G   19314.93915129 -.00000036  00000-0  31129-5 0  9993
2 25400  98.5847 250.1641 0008832 253.6676 106.3532 14.25445530109978
Epoch (UTC): 10 November 2019 22:32:22
Eccentricity: 0.0008832
inclination: 98.5847°
perigee height: 800 km
apogee height: 813 km
right ascension of ascending node: 250.1641°
argument of perigee: 253.6676°
revolutions per day: 14.25445530
mean anomaly at epoch: 106.3532°
orbit number at epoch: 10997

The dashed part of the orbit path shows where the satellite is in the earth's shadow,  

DLR